Regional Weather Roundup
Issued by NWS

Home | Current Version | Previous Version | Graphics & Text | Print | Product List | Glossary On
Versions: 1 2 3 4 5 6 7 8 9 10 11 12 13 14 15 16 17 18 19 20 21 22 23 24 25 26 27 28 29 30 31 32 33 34 35 36 37 38 39 40 41 42 43 44 45 46 47 48 49 50
684
ASUS45 KBOI 230710
RWRID

IDAHO REGIONAL WEATHER ROUNDUP
NATIONAL WEATHER SERVICE BOISE ID
100 AM MDT SAT JUL 23 2016

NOTE: "FAIR" INDICATES FEW OR NO CLOUDS BELOW 12000 FEET
WITH NO SIGNIFICANT WEATHER AND/OR OBSTRUCTIONS TO VISIBILITY

IDZ012-014-230800-
SOUTHWEST IDAHO


CITY           SKY/WX    TMP DP  RH WIND       PRES   REMARKS
BOISE          CLEAR     72  40  31 NW12      30.09R
CALDWELL       NOT AVBL
MOUNTAIN HOME  CLEAR     71  44  37 NW21G26   30.07S
$$

IDZ016-017-230800-
SOUTHCENTRAL IDAHO


CITY           SKY/WX    TMP DP  RH WIND       PRES   REMARKS
BURLEY         CLEAR     59  44  57 S8        30.12R
JEROME         CLEAR     66  40  38 S6        30.12S
TWIN FALLS     CLEAR     65  33  30 SW13      30.13S
$$

IDZ019>023-230800-
SOUTHEAST IDAHO


CITY           SKY/WX    TMP DP  RH WIND       PRES   REMARKS
IDAHO FALLS    CLEAR     67  33  28 S12       30.11R
POCATELLO      CLEAR     71  29  21 SW13      30.13S
REXBURG        CLEAR     61  33  35 SW5       30.10R
$$

IDZ006-010-011-018-031-032-230800-
CENTRAL IDAHO MOUNTAINS


CITY           SKY/WX    TMP DP  RH WIND       PRES   REMARKS
MCCALL         CLEAR     61  43  51 N9        30.24S
HAILEY         CLEAR     61  32  33 NW9       30.19F
STANLEY          N/A     49  33  54 NE5       30.29S
SALMON         CLEAR     68  45  42 NW8       30.13R
CHALLIS        CLEAR     63  36  36 CALM      30.17S
$$

IDZ002-004-006-007-026-230800-
NORTHERN IDAHO


CITY           SKY/WX    TMP DP  RH WIND       PRES   REMARKS
LEWISTON       CLEAR     69  46  43 W7        30.13S
LOWELL           N/A     60  53  77 CALM      30.17R
COEUR D`ALENE  PTCLDY    57  54  88 CALM      30.14R
MULLAN PASS    CLEAR     46  43  89 NW10G20   30.24F
$$




USA.gov is the U.S. government's official web portal to all federal, state and local government web resources and services.